OK1FPA-13 Weather Reports


time (UTC)temp
F
wind
direction
speed
knots
gust
knots
rain 1hr
in
rain 24hr
in
rain mn
in
humidity
%
barometer
mb
20260507211445 55 0.0 0.0 0.00 0.00 0.00 92 1014.5
20260507210445 55 0.0 0.0 0.00 0.00 0.00 91 1014.4
20260507205445 55 0.0 0.0 0.00 0.00 0.00 90 1014.2
20260507204445 55 0.0 0.0 0.00 0.00 0.00 88 1014.2
20260507203445 55 0.0 0.0 0.00 0.00 0.00 87 1014.1
20260507202445 56 0.0 0.0 0.00 0.00 0.00 86 1013.9
20260507201445 56 0.0 0.0 0.00 0.00 0.00 85 1013.8
20260507200445 56 0.0 0.0 0.00 0.00 0.00 82 1013.8
20260507195445 56 0.0 0.0 0.00 0.00 0.00 82 1013.7
20260507194445 56 0.0 0.0 0.00 0.00 0.00 82 1013.6
20260507193445 56 0.0 0.0 0.00 0.00 0.00 82 1013.5
20260507192446 56 0.0 0.0 0.00 0.00 0.00 80 1013.3
20260507191445 56 0.0 0.0 0.00 0.00 0.00 77 1013.3
20260507190445 57 0.0 0.0 0.00 0.00 0.00 75 1013.2
20260507185445 56 0.0 0.0 0.00 0.00 0.00 75 1013.0
20260507184445 57 0.0 0.0 0.00 0.00 0.00 74 1012.8
20260507183445 57 0.0 0.0 0.00 0.00 0.00 73 1012.6
20260507182445 57 0.0 0.0 0.00 0.00 0.00 72 1012.6
20260507181445 58 0.0 0.0 0.00 0.00 0.00 70 1012.4
20260507180445 58 0.0 0.0 0.00 0.00 0.00 67 1012.4
20260507175446 59 0.0 0.0 0.00 0.00 0.00 64 1012.2
20260507174445 60 0.0 0.0 0.00 0.00 0.00 60 1012.1
20260507173445 61 0.0 0.0 0.00 0.00 0.00 54 1011.9
20260507172445 62 0.0 0.0 0.00 0.00 0.00 52 1011.6
20260507171446 62 0.0 0.0 0.00 0.00 0.00 51 1011.5
20260507170445 63 0.0 0.0 0.00 0.00 0.00 50 1011.4
20260507165445 63 0.0 0.0 0.00 0.00 0.00 49 1011.4
20260507164445 63 0.0 0.0 0.00 0.00 0.00 49 1011.3
20260507163445 64 0.0 0.0 0.00 0.00 0.00 48 1011.2
20260507162445 65 0.0 0.0 0.00 0.00 0.00 47 1011.1
20260507161446 65 0.0 0.0 0.00 0.00 0.00 46 1011.0
20260507160445 66 0.0 0.0 0.00 0.00 0.00 44 1011.0
20260507155445 67 0.0 0.0 0.00 0.00 0.00 41 1010.9
20260507154445 68 0.0 0.0 0.00 0.00 0.00 40 1010.9
20260507153445 68 0.0 0.0 0.00 0.00 0.00 42 1011.0
20260507152446 66 0.0 0.0 0.00 0.00 0.00 44 1011.1
20260507151445 65 0.0 0.0 0.00 0.00 0.00 48 1011.0
20260507150445 65 0.0 0.0 0.00 0.00 0.00 49 1010.9
20260507145445 64 0.0 0.0 0.00 0.00 0.00 49 1011.0
20260507144445 67 0.0 0.0 0.00 0.00 0.00 48 1010.9
20260507143445 66 0.0 0.0 0.00 0.00 0.00 49 1011.0
20260507142450 66 0.0 0.0 0.00 0.00 0.00 50 1011.0
20260507141446 66 0.0 0.0 0.00 0.00 0.00 51 1011.0
20260507140446 68 0.0 0.0 0.00 0.00 0.00 46 1011.0
20260507135445 69 0.0 0.0 0.00 0.00 0.00 42 1011.0
20260507134445 68 0.0 0.0 0.00 0.00 0.00 44 1010.9
20260507133445 68 0.0 0.0 0.00 0.00 0.00 45 1011.0
20260507131444 70 0.0 0.0 0.00 0.00 0.00 42 1011.0
20260507130444 71 0.0 0.0 0.00 0.00 0.00 41 1011.0
20260507125444 72 0.0 0.0 0.00 0.00 0.00 39 1010.9
20260507124444 70 0.0 0.0 0.00 0.00 0.00 42 1010.8
20260507123444 71 0.0 0.0 0.00 0.00 0.00 44 1010.9
20260507122444 69 0.0 0.0 0.00 0.00 0.00 46 1010.9
20260507121444 69 0.0 0.0 0.00 0.00 0.00 44 1010.8
20260507120444 68 0.0 0.0 0.00 0.00 0.00 45 1010.8
20260507115444 68 0.0 0.0 0.00 0.00 0.00 43 1010.9
20260507114444 68 0.0 0.0 0.00 0.00 0.00 45 1010.8
20260507113444 67 0.0 0.0 0.00 0.00 0.00 48 1010.8
20260507112444 68 0.0 0.0 0.00 0.00 0.00 45 1010.8
20260507111444 67 0.0 0.0 0.00 0.00 0.00 49 1010.8
20260507110444 68 0.0 0.0 0.00 0.00 0.00 48 1010.6
20260507105444 68 0.0 0.0 0.00 0.00 0.00 50 1010.6
20260507104444 67 0.0 0.0 0.00 0.00 0.00 51 1010.6
20260507103444 67 0.0 0.0 0.00 0.00 0.00 54 1010.5
20260507102444 68 0.0 0.0 0.00 0.00 0.00 52 1010.6
20260507101444 67 0.0 0.0 0.00 0.00 0.00 54 1010.6
20260507100444 67 0.0 0.0 0.00 0.00 0.00 55 1010.5
20260507095444 69 0.0 0.0 0.00 0.00 0.00 53 1010.3
20260507094444 68 0.0 0.0 0.00 0.00 0.00 53 1010.3
20260507093444 67 0.0 0.0 0.00 0.00 0.00 58 1010.4
20260507092444 66 0.0 0.0 0.00 0.00 0.00 58 1010.4
20260507091444 66 0.0 0.0 0.00 0.00 0.00 65 1010.3
20260507090444 65 0.0 0.0 0.00 0.00 0.00 66 1010.3
20260507085444 65 0.0 0.0 0.00 0.00 0.00 67 1010.1
20260507084444 63 0.0 0.0 0.00 0.00 0.00 69 1010.1
20260507083444 62 0.0 0.0 0.00 0.00 0.00 75 1010.1
20260507082444 61 0.0 0.0 0.00 0.00 0.00 75 1010.0
20260507081444 61 0.0 0.0 0.00 0.00 0.00 75 1010.1
20260507080444 60 0.0 0.0 0.00 0.00 0.00 78 1010.0
20260507075444 60 0.0 0.0 0.00 0.00 0.00 78 1010.1
20260507074444 60 0.0 0.0 0.00 0.00 0.00 81 1010.1
20260507073444 60 0.0 0.0 0.00 0.00 0.00 80 1010.0
20260507072444 60 0.0 0.0 0.00 0.00 0.00 81 1009.8
20260507071444 60 0.0 0.0 0.00 0.00 0.00 84 1009.8
20260507070444 60 0.0 0.0 0.00 0.00 0.00 83 1009.7
20260507065444 59 0.0 0.0 0.00 0.00 0.00 89 1009.7
20260507064444 58 0.0 0.0 0.00 0.00 0.00 89 1009.6
20260507063444 58 0.0 0.0 0.00 0.00 0.00 93 1009.5
20260507062444 57 0.0 0.0 0.00 0.00 0.00 96 1009.4
20260507061444 57 0.0 0.0 0.00 0.00 0.00 95 1009.3
20260507060444 57 0.0 0.0 0.00 0.00 0.00 99 1009.2
20260507055444 57 0.0 0.0 0.00 0.00 0.00 10 1009.1
20260507054444 56 0.0 0.0 0.00 0.00 0.00 10 1009.1
20260507053444 56 0.0 0.0 0.00 0.00 0.00 10 1008.9
20260507052444 56 0.0 0.0 0.00 0.00 0.00 10 1008.7
20260507051444 55 0.0 0.0 0.00 0.00 0.00 10 1008.6
20260507050444 55 0.0 0.0 0.00 0.00 0.00 10 1008.5
20260507045448 55 0.0 0.0 0.00 0.00 0.00 10 1008.4
20260507044444 55 0.0 0.0 0.00 0.00 0.00 10 1008.2
20260507043444 54 0.0 0.0 0.00 0.00 0.00 10 1008.1
20260507042444 54 0.0 0.0 0.00 0.00 0.00 10 1008.0
20260507041444 54 0.0 0.0 0.00 0.00 0.00 10 1007.9
20260507040444 54 0.0 0.0 0.00 0.00 0.00 10 1007.8
20260507035444 54 0.0 0.0 0.00 0.00 0.00 10 1007.7
20260507034444 53 0.0 0.0 0.00 0.00 0.00 10 1007.7
20260507033444 53 0.0 0.0 0.00 0.00 0.00 10 1007.6
20260507032444 53 0.0 0.0 0.00 0.00 0.00 10 1007.5
20260507031444 53 0.0 0.0 0.00 0.00 0.00 10 1007.4
20260507030444 53 0.0 0.0 0.00 0.00 0.00 10 1007.3
20260507025444 53 0.0 0.0 0.00 0.00 0.00 10 1007.2
20260507024444 53 0.0 0.0 0.00 0.00 0.00 10 1007.3
20260507023444 53 0.0 0.0 0.00 0.00 0.00 10 1007.2
20260507022444 53 0.0 0.0 0.00 0.00 0.00 10 1007.2
20260507021444 53 0.0 0.0 0.00 0.00 0.00 10 1007.2
20260507020444 54 0.0 0.0 0.00 0.00 0.00 10 1007.1
20260507015444 54 0.0 0.0 0.00 0.00 0.00 10 1007.1
20260507014444 54 0.0 0.0 0.00 0.00 0.00 10 1007.0
20260507013444 54 0.0 0.0 0.00 0.00 0.00 10 1006.8
20260507012446 55 0.0 0.0 0.00 0.00 0.00 10 1006.5
20260507011442 55 0.0 0.0 0.00 0.00 0.00 10 1006.5
20260507010442 55 0.0 0.0 0.00 0.00 0.00 10 1006.4
20260507004442 55 0.0 0.0 0.00 0.00 0.00 10 1006.1
20260507003442 55 0.0 0.0 0.00 0.00 0.00 10 1006.0
20260507002442 55 0.0 0.0 0.00 0.00 0.00 10 1005.7
20260507001442 55 0.0 0.0 0.00 0.00 0.00 10 1005.7
20260507000442 55 0.0 0.0 0.00 0.00 0.00 10 1005.7
20260506235442 56 0.0 0.0 0.00 0.00 0.00 10 1005.7
20260506234443 56 0.0 0.0 0.00 0.00 0.00 10 1005.8
20260506233442 56 0.0 0.0 0.00 0.00 0.00 10 1005.5
20260506232442 56 0.0 0.0 0.00 0.00 0.00 10 1004.9
20260506231443 56 0.0 0.0 0.00 0.00 0.00 10 1005.2
20260506230442 56 0.0 0.0 0.00 0.00 0.00 10 1005.5
20260506225442 56 0.0 0.0 0.00 0.00 0.00 10 1005.6
20260506224443 56 0.0 0.0 0.00 0.00 0.00 10 1005.9
20260506223442 56 0.0 0.0 0.00 0.00 0.00 10 1005.9
20260506222442 56 0.0 0.0 0.00 0.00 0.00 10 1006.0
20260506221442 56 0.0 0.0 0.00 0.00 0.00 10 1006.0
20260506220442 56 0.0 0.0 0.00 0.00 0.00 10 1006.0
20260506215442 56 0.0 0.0 0.00 0.00 0.00 10 1005.1
20260506214442 56 0.0 0.0 0.00 0.00 0.00 10 1004.5
20260506213442 55 0.0 0.0 0.00 0.00 0.00 10 1004.5
20260506212442 55 0.0 0.0 0.00 0.00 0.00 10 1004.6